Year,Month,Day,Hour,Minute,Value (Times are PST for temperature in C)
2009,06,02,07,24,13.80
2009,06,02,07,25,13.90
2009,06,02,07,26,13.90
2009,06,02,07,27,14.00
2009,06,02,07,28,14.10
2009,06,02,07,29,14.10
2009,06,02,07,30,14.20
2009,06,02,07,31,14.20
2009,06,02,07,32,14.30
2009,06,02,07,33,14.30
2009,06,02,07,34,14.40
2009,06,02,07,35,14.50
2009,06,02,07,36,14.60
2009,06,02,07,37,14.70
2009,06,02,07,38,14.90
2009,06,02,07,39,15.00
2009,06,02,07,40,15.00
2009,06,02,07,41,15.00
2009,06,02,07,42,15.10
2009,06,02,07,43,15.20
2009,06,02,07,44,15.30
2009,06,02,07,45,15.40
2009,06,02,07,46,15.40
2009,06,02,07,47,15.50
2009,06,02,07,48,15.60
2009,06,02,07,49,15.70
2009,06,02,07,50,15.80
2009,06,02,07,51,15.90
2009,06,02,07,52,16.10
2009,06,02,07,53,16.20
2009,06,02,07,54,16.30
2009,06,02,07,55,16.40
2009,06,02,07,56,16.60
2009,06,02,07,57,16.70
2009,06,02,07,58,16.80
2009,06,02,07,59,16.90
2009,06,02,08,00,17.10
2009,06,02,08,01,17.20
2009,06,02,08,02,17.30
2009,06,02,08,03,17.40
2009,06,02,08,04,17.50
2009,06,02,08,05,17.60
2009,06,02,08,06,17.70
2009,06,02,08,07,17.90
2009,06,02,08,08,18.00
2009,06,02,08,09,18.10
2009,06,02,08,10,18.20
2009,06,02,08,11,18.30
2009,06,02,08,12,18.40
2009,06,02,08,13,18.50
2009,06,02,08,14,18.60
2009,06,02,08,15,18.70
2009,06,02,08,16,18.80
2009,06,02,08,17,18.80
2009,06,02,08,18,18.90
2009,06,02,08,19,18.90
2009,06,02,08,20,19.00
2009,06,02,08,21,19.10
2009,06,02,08,22,19.20
2009,06,02,08,23,19.30
2009,06,02,08,24,19.30
2009,06,02,08,25,19.40
2009,06,02,08,26,19.50
2009,06,02,08,27,19.60
2009,06,02,08,28,19.60
2009,06,02,08,29,19.70
2009,06,02,08,30,19.80
2009,06,02,08,31,19.80
2009,06,02,08,32,19.90
2009,06,02,08,33,20.00
2009,06,02,08,34,20.10
2009,06,02,08,35,20.20
2009,06,02,08,36,20.30
2009,06,02,08,37,20.40
2009,06,02,08,38,20.50
2009,06,02,08,39,20.50
2009,06,02,08,40,20.60
2009,06,02,08,41,20.70
2009,06,02,08,42,20.70
2009,06,02,08,43,20.80
2009,06,02,08,44,20.80
2009,06,02,08,45,20.90
2009,06,02,08,46,21.00
2009,06,02,08,47,21.00
2009,06,02,08,48,21.10
2009,06,02,08,49,21.10
2009,06,02,08,50,21.20
2009,06,02,08,51,21.20
2009,06,02,08,52,21.30
2009,06,02,08,53,21.30
2009,06,02,08,54,21.40
2009,06,02,08,55,21.40
2009,06,02,08,56,21.40
2009,06,02,08,57,21.30
2009,06,02,08,58,21.30
2009,06,02,08,59,21.30
2009,06,02,09,00,21.20
2009,06,02,09,01,21.20
2009,06,02,09,02,21.20
2009,06,02,09,03,21.20
2009,06,02,09,04,21.20
2009,06,02,09,05,21.20
2009,06,02,09,06,21.20
2009,06,02,09,07,21.20
2009,06,02,09,08,21.20
2009,06,02,09,09,21.20
2009,06,02,09,10,21.20
2009,06,02,09,11,21.10
2009,06,02,09,12,21.10
2009,06,02,09,13,21.10
2009,06,02,09,14,21.10
2009,06,02,09,15,21.10
2009,06,02,09,16,21.10
2009,06,02,09,17,21.20
2009,06,02,09,18,21.20
2009,06,02,09,19,21.30
2009,06,02,09,20,21.20
2009,06,02,09,21,21.20
2009,06,02,09,22,21.20
2009,06,02,09,23,21.30
2009,06,02,09,24,21.30
2009,06,02,09,25,21.30
2009,06,02,09,26,21.30
2009,06,02,09,27,21.30
2009,06,02,09,28,21.40
2009,06,02,09,29,21.40
2009,06,02,09,30,21.40
2009,06,02,09,31,21.40
2009,06,02,09,32,21.40
2009,06,02,09,33,21.40
2009,06,02,09,34,21.40
2009,06,02,09,35,21.40
2009,06,02,09,36,21.50
2009,06,02,09,37,21.50
2009,06,02,09,38,21.50
2009,06,02,09,39,21.50
2009,06,02,09,40,21.50
2009,06,02,09,41,21.50
2009,06,02,09,42,21.60
2009,06,02,09,43,21.60
2009,06,02,09,44,21.60
2009,06,02,09,45,21.70
2009,06,02,09,46,21.70
2009,06,02,09,47,21.70
2009,06,02,09,48,21.70
2009,06,02,09,49,21.80
2009,06,02,09,50,21.70
2009,06,02,09,51,21.70
2009,06,02,09,52,21.70
2009,06,02,09,53,21.70
2009,06,02,09,54,21.70
2009,06,02,09,55,21.80
2009,06,02,09,56,21.80
2009,06,02,09,57,21.90
2009,06,02,09,58,22.00
2009,06,02,09,59,22.10
2009,06,02,10,00,22.30
2009,06,02,10,01,22.40
2009,06,02,10,02,22.50
2009,06,02,10,03,22.60
2009,06,02,10,04,22.70
2009,06,02,10,05,22.80
2009,06,02,10,06,22.90
2009,06,02,10,07,23.00
2009,06,02,10,08,23.10
2009,06,02,10,09,23.10
2009,06,02,10,10,23.20
2009,06,02,10,11,23.20
2009,06,02,10,12,23.30
2009,06,02,10,13,23.40
2009,06,02,10,14,23.50
2009,06,02,10,15,23.60
2009,06,02,10,16,23.70
2009,06,02,10,17,23.70
2009,06,02,10,18,23.80
2009,06,02,10,19,23.80
2009,06,02,10,20,23.80
2009,06,02,10,21,23.80
2009,06,02,10,22,23.90
2009,06,02,10,23,24.00
2009,06,02,10,24,24.00
2009,06,02,10,25,24.10
2009,06,02,10,26,24.10
2009,06,02,10,27,24.20
2009,06,02,10,28,24.20
2009,06,02,10,29,24.20
2009,06,02,10,30,24.20
2009,06,02,10,31,24.20
2009,06,02,10,32,24.20
2009,06,02,10,33,24.30
2009,06,02,10,34,24.40
2009,06,02,10,35,24.40
2009,06,02,10,36,24.50
2009,06,02,10,37,24.60
2009,06,02,10,38,24.70
2009,06,02,10,39,24.80
2009,06,02,10,40,24.80
2009,06,02,10,41,24.90
2009,06,02,10,42,24.80
2009,06,02,10,43,24.70
2009,06,02,10,44,24.60
2009,06,02,10,45,24.40
2009,06,02,10,46,24.20
2009,06,02,10,47,24.10
2009,06,02,10,48,24.00
2009,06,02,10,49,23.90
2009,06,02,10,50,23.80
2009,06,02,10,51,23.80
2009,06,02,10,52,23.70
2009,06,02,10,53,23.70
2009,06,02,10,54,23.70
2009,06,02,10,55,23.70
2009,06,02,10,56,23.80
2009,06,02,10,57,23.90
2009,06,02,10,58,24.00
2009,06,02,10,59,24.20
2009,06,02,11,00,24.30
2009,06,02,11,01,24.40
2009,06,02,11,02,24.50
2009,06,02,11,03,24.60
2009,06,02,11,04,24.70
2009,06,02,11,05,24.70
2009,06,02,11,06,24.60
2009,06,02,11,07,24.60
2009,06,02,11,08,24.60
2009,06,02,11,09,24.60
2009,06,02,11,10,24.70
2009,06,02,11,11,24.70
2009,06,02,11,12,24.80
2009,06,02,11,13,24.90
2009,06,02,11,14,24.90
2009,06,02,11,15,24.90
2009,06,02,11,16,24.90
2009,06,02,11,17,25.00
2009,06,02,11,18,24.90
2009,06,02,11,19,25.00
2009,06,02,11,20,25.00
2009,06,02,11,21,24.90
2009,06,02,11,22,24.90
2009,06,02,11,23,25.00
2009,06,02,11,24,25.00
2009,06,02,11,25,25.10
2009,06,02,11,26,25.10
2009,06,02,11,27,25.10
2009,06,02,11,28,25.10
2009,06,02,11,29,25.10
2009,06,02,11,30,25.10
2009,06,02,11,31,25.20
2009,06,02,11,32,25.20
2009,06,02,11,33,25.30
2009,06,02,11,34,25.40
2009,06,02,11,35,25.40
2009,06,02,11,36,25.40
2009,06,02,11,37,25.40
2009,06,02,11,38,25.40
2009,06,02,11,39,25.40
2009,06,02,11,40,25.40
2009,06,02,11,41,25.40
2009,06,02,11,42,25.50
2009,06,02,11,43,25.50
2009,06,02,11,44,25.60
2009,06,02,11,45,25.60
2009,06,02,11,46,25.60
2009,06,02,11,47,25.70
2009,06,02,11,48,25.70
2009,06,02,11,49,25.60
2009,06,02,11,50,25.70
2009,06,02,11,51,25.70
2009,06,02,11,52,25.80
2009,06,02,11,53,25.90
2009,06,02,11,54,25.90
2009,06,02,11,55,25.90
2009,06,02,11,56,25.90
2009,06,02,11,57,25.80
2009,06,02,11,58,25.80
2009,06,02,11,59,25.80
2009,06,02,12,00,25.80
2009,06,02,12,01,25.90
2009,06,02,12,02,25.80
2009,06,02,12,03,25.80
2009,06,02,12,04,25.90
2009,06,02,12,05,25.90
2009,06,02,12,06,25.90
2009,06,02,12,07,25.90
2009,06,02,12,08,25.80
2009,06,02,12,09,25.80
2009,06,02,12,10,25.80
2009,06,02,12,11,25.80
2009,06,02,12,12,25.80
2009,06,02,12,13,25.90
2009,06,02,12,14,26.00
2009,06,02,12,15,26.00
2009,06,02,12,16,26.10
2009,06,02,12,17,26.10
2009,06,02,12,18,26.10
2009,06,02,12,19,26.00
2009,06,02,12,20,25.90
2009,06,02,12,21,25.90
2009,06,02,12,22,25.90
2009,06,02,12,23,25.90
2009,06,02,12,24,25.90
2009,06,02,12,25,25.90
2009,06,02,12,26,25.90
2009,06,02,12,27,25.90
2009,06,02,12,28,25.90
2009,06,02,12,29,25.90
2009,06,02,12,30,26.00
2009,06,02,12,31,26.10
2009,06,02,12,32,26.20
2009,06,02,12,33,26.30
2009,06,02,12,34,26.40
2009,06,02,12,35,26.40
2009,06,02,12,36,26.40
2009,06,02,12,37,26.50
2009,06,02,12,38,26.60
2009,06,02,12,39,26.70
2009,06,02,12,40,26.70
2009,06,02,12,41,26.80
2009,06,02,12,42,26.70
2009,06,02,12,43,26.60
2009,06,02,12,44,26.60
2009,06,02,12,45,26.70
2009,06,02,12,46,26.70
2009,06,02,12,47,26.80
2009,06,02,12,48,26.80
2009,06,02,12,49,26.80
2009,06,02,12,50,26.80
2009,06,02,12,51,26.90
2009,06,02,12,52,26.90
2009,06,02,12,53,26.90
2009,06,02,12,54,27.00
2009,06,02,12,55,27.00
2009,06,02,12,56,27.10
2009,06,02,12,57,27.10
2009,06,02,12,58,27.10
2009,06,02,12,59,27.10
2009,06,02,13,00,26.90
2009,06,02,13,01,26.80
2009,06,02,13,02,26.80
2009,06,02,13,03,26.80
2009,06,02,13,04,26.80
2009,06,02,13,05,26.90
2009,06,02,13,06,27.00
2009,06,02,13,07,27.00
2009,06,02,13,08,27.10
2009,06,02,13,09,27.20
2009,06,02,13,10,27.20
2009,06,02,13,11,27.20
2009,06,02,13,12,27.10
2009,06,02,13,13,27.10
2009,06,02,13,14,27.10
2009,06,02,13,15,27.10
2009,06,02,13,16,27.10
2009,06,02,13,17,27.10
2009,06,02,13,18,27.20
2009,06,02,13,19,27.20
2009,06,02,13,20,27.20
2009,06,02,13,21,27.20
2009,06,02,13,22,27.10
2009,06,02,13,23,27.10
2009,06,02,13,24,27.10
2009,06,02,13,25,27.10
2009,06,02,13,26,27.10
2009,06,02,13,27,27.00
2009,06,02,13,28,26.90
2009,06,02,13,29,26.90
2009,06,02,13,30,26.90
2009,06,02,13,31,27.00
2009,06,02,13,32,27.10
2009,06,02,13,33,27.10
2009,06,02,13,34,27.10
2009,06,02,13,35,27.10
2009,06,02,13,36,27.20
2009,06,02,13,37,27.30
2009,06,02,13,38,27.40
2009,06,02,13,39,27.40
2009,06,02,13,40,27.30
2009,06,02,13,41,27.40
2009,06,02,13,42,27.40
2009,06,02,13,43,27.50
2009,06,02,13,44,27.50
2009,06,02,13,45,27.60
2009,06,02,13,46,27.60
2009,06,02,13,47,27.70
2009,06,02,13,48,27.70
2009,06,02,13,49,27.70
2009,06,02,13,50,27.70
2009,06,02,13,51,27.70
2009,06,02,13,52,27.70
2009,06,02,13,53,27.70
2009,06,02,13,54,27.70
2009,06,02,13,55,27.70
2009,06,02,13,56,27.70
2009,06,02,13,57,27.70
2009,06,02,13,58,27.60
2009,06,02,13,59,27.70
2009,06,02,14,00,27.70
2009,06,02,14,01,27.70
2009,06,02,14,02,27.70
2009,06,02,14,03,27.70
2009,06,02,14,04,27.70
2009,06,02,14,05,27.70
2009,06,02,14,06,27.70
2009,06,02,14,07,27.70
2009,06,02,14,08,27.80
2009,06,02,14,09,27.80
2009,06,02,14,10,27.90
2009,06,02,14,11,27.90
2009,06,02,14,12,27.90
2009,06,02,14,13,27.80
2009,06,02,14,14,27.80
2009,06,02,14,15,27.80
2009,06,02,14,16,27.80
2009,06,02,14,17,27.80
2009,06,02,14,18,27.90
2009,06,02,14,19,27.90
2009,06,02,14,20,27.90
2009,06,02,14,21,28.00
2009,06,02,14,22,28.10
2009,06,02,14,23,28.10
2009,06,02,14,24,28.20
2009,06,02,14,25,28.20
2009,06,02,14,26,28.20
2009,06,02,14,27,28.10
2009,06,02,14,28,27.90
2009,06,02,14,29,27.80
2009,06,02,14,30,27.90
2009,06,02,14,31,27.90
2009,06,02,14,32,27.90
2009,06,02,14,33,27.90
2009,06,02,14,34,27.90
2009,06,02,14,35,27.90
2009,06,02,14,36,27.90
2009,06,02,14,37,27.90
2009,06,02,14,38,28.00
2009,06,02,14,39,28.10
2009,06,02,14,40,28.20
2009,06,02,14,41,28.20
2009,06,02,14,42,28.20
2009,06,02,14,43,28.30
2009,06,02,14,44,28.30
2009,06,02,14,45,28.40
2009,06,02,14,46,28.40
2009,06,02,14,47,28.40
2009,06,02,14,48,28.40
2009,06,02,14,49,28.40
2009,06,02,14,50,28.40
2009,06,02,14,51,28.40
2009,06,02,14,52,28.50
2009,06,02,14,53,28.50
2009,06,02,14,54,28.60
2009,06,02,14,55,28.60
2009,06,02,14,56,28.70
2009,06,02,14,57,28.70
2009,06,02,14,58,28.70
2009,06,02,14,59,28.70
2009,06,02,15,00,28.60
2009,06,02,15,01,28.60
2009,06,02,15,02,28.60
2009,06,02,15,03,28.60
2009,06,02,15,04,28.70
2009,06,02,15,05,28.70
2009,06,02,15,06,28.70
2009,06,02,15,07,28.60
2009,06,02,15,08,28.60
2009,06,02,15,09,28.50
2009,06,02,15,10,28.60
2009,06,02,15,11,28.60
2009,06,02,15,12,28.70
2009,06,02,15,13,28.80
2009,06,02,15,14,28.80
2009,06,02,15,15,28.90
2009,06,02,15,16,28.90
2009,06,02,15,17,29.00
2009,06,02,15,18,29.10
2009,06,02,15,19,29.10
2009,06,02,15,20,29.00
2009,06,02,15,21,29.00
2009,06,02,15,22,28.90
2009,06,02,15,23,28.90
2009,06,02,15,24,28.80
2009,06,02,15,25,28.70
2009,06,02,15,26,28.70
2009,06,02,15,27,28.70
2009,06,02,15,28,28.70
2009,06,02,15,29,28.70
2009,06,02,15,30,28.70
2009,06,02,15,31,28.70
2009,06,02,15,32,28.70
2009,06,02,15,33,28.70
2009,06,02,15,34,28.70
2009,06,02,15,35,28.80
2009,06,02,15,36,28.80
2009,06,02,15,37,28.90
2009,06,02,15,38,29.00
2009,06,02,15,39,29.00
2009,06,02,15,40,29.00
2009,06,02,15,41,29.00
2009,06,02,15,42,28.90
2009,06,02,15,43,28.90
2009,06,02,15,44,28.80
2009,06,02,15,45,28.80
2009,06,02,15,46,28.80
2009,06,02,15,47,28.80
2009,06,02,15,48,28.90
2009,06,02,15,49,28.90
2009,06,02,15,50,29.00
2009,06,02,15,51,29.00
2009,06,02,15,52,28.90
2009,06,02,15,53,28.90
2009,06,02,15,54,28.80
2009,06,02,15,55,28.80
2009,06,02,15,56,28.90
2009,06,02,15,57,28.90
2009,06,02,15,58,28.90
2009,06,02,15,59,28.90
2009,06,02,16,00,28.80
2009,06,02,16,01,28.90
2009,06,02,16,02,28.90
2009,06,02,16,03,28.90
2009,06,02,16,04,29.00
2009,06,02,16,05,29.00
2009,06,02,16,06,29.10
2009,06,02,16,07,29.20
2009,06,02,16,08,29.30
2009,06,02,16,09,29.40
2009,06,02,16,10,29.40
2009,06,02,16,11,29.40
2009,06,02,16,12,29.50
2009,06,02,16,13,29.40
2009,06,02,16,14,29.40
2009,06,02,16,15,29.30
2009,06,02,16,16,29.30
2009,06,02,16,17,29.30
2009,06,02,16,18,29.30
2009,06,02,16,19,29.30
2009,06,02,16,20,29.30
2009,06,02,16,21,29.30
2009,06,02,16,22,29.20
2009,06,02,16,23,29.20
2009,06,02,16,24,29.20
2009,06,02,16,25,29.20
2009,06,02,16,26,29.10
2009,06,02,16,27,29.00
2009,06,02,16,28,29.00
2009,06,02,16,29,29.00
2009,06,02,16,30,29.00
2009,06,02,16,31,29.00
2009,06,02,16,32,29.00
2009,06,02,16,33,29.10
2009,06,02,16,34,29.10
2009,06,02,16,35,29.20
2009,06,02,16,36,29.20
2009,06,02,16,37,29.20
2009,06,02,16,38,29.20
2009,06,02,16,39,29.30
2009,06,02,16,40,29.30
2009,06,02,16,41,29.30
2009,06,02,16,42,29.30
2009,06,02,16,43,29.30
2009,06,02,16,44,29.20
2009,06,02,16,45,29.20
2009,06,02,16,46,29.10
2009,06,02,16,47,29.10
2009,06,02,16,48,29.00
2009,06,02,16,49,29.00
2009,06,02,16,50,28.90
2009,06,02,16,51,28.90
2009,06,02,16,52,28.90
2009,06,02,16,53,28.80
2009,06,02,16,54,28.80
2009,06,02,16,55,28.80
2009,06,02,16,56,28.80
2009,06,02,16,57,28.80
2009,06,02,16,58,28.80
2009,06,02,16,59,28.80
2009,06,02,17,00,28.80
2009,06,02,17,01,28.80
2009,06,02,17,02,28.90
2009,06,02,17,03,28.90
2009,06,02,17,04,28.90
2009,06,02,17,05,28.90
2009,06,02,17,06,28.90
2009,06,02,17,07,28.90
2009,06,02,17,08,28.90
2009,06,02,17,09,28.90
2009,06,02,17,10,28.80
2009,06,02,17,11,28.80
2009,06,02,17,12,28.80
2009,06,02,17,13,28.80
2009,06,02,17,14,28.80
2009,06,02,17,15,28.80
2009,06,02,17,16,28.80
2009,06,02,17,17,28.80
2009,06,02,17,18,28.90
2009,06,02,17,19,28.90
2009,06,02,17,20,28.80
2009,06,02,17,21,28.80
2009,06,02,17,22,28.80
2009,06,02,17,23,28.80
2009,06,02,17,24,28.80
2009,06,02,17,25,28.80
2009,06,02,17,26,28.80
2009,06,02,17,27,28.70
2009,06,02,17,28,28.70
2009,06,02,17,29,28.60
2009,06,02,17,30,28.60
2009,06,02,17,31,28.60
2009,06,02,17,32,28.60
2009,06,02,17,33,28.60
2009,06,02,17,34,28.60
2009,06,02,17,35,28.60
2009,06,02,17,36,28.70
2009,06,02,17,37,28.70
2009,06,02,17,38,28.70
2009,06,02,17,39,28.70
2009,06,02,17,40,28.80
2009,06,02,17,41,28.80
2009,06,02,17,42,28.90
2009,06,02,17,43,28.90
2009,06,02,17,44,29.00
2009,06,02,17,45,29.00
2009,06,02,17,46,29.10
2009,06,02,17,47,29.00
2009,06,02,17,48,29.00
2009,06,02,17,49,28.90
2009,06,02,17,50,28.80
2009,06,02,17,51,28.80
2009,06,02,17,52,28.70
2009,06,02,17,53,28.70
2009,06,02,17,54,28.70
2009,06,02,17,55,28.70
2009,06,02,17,56,28.60
2009,06,02,17,57,28.60
2009,06,02,17,58,28.60
2009,06,02,17,59,28.60
2009,06,02,18,00,28.60
2009,06,02,18,01,28.50
2009,06,02,18,02,28.50
2009,06,02,18,03,28.50
2009,06,02,18,04,28.50
2009,06,02,18,05,28.40
2009,06,02,18,06,28.40
2009,06,02,18,07,28.40
2009,06,02,18,08,28.40
2009,06,02,18,09,28.30
2009,06,02,18,10,28.30
2009,06,02,18,11,28.20
2009,06,02,18,12,28.20
2009,06,02,18,13,28.20
2009,06,02,18,14,28.20
2009,06,02,18,15,28.20
2009,06,02,18,16,28.20
2009,06,02,18,17,28.30
2009,06,02,18,18,28.30
2009,06,02,18,19,28.30
2009,06,02,18,20,28.30
2009,06,02,18,21,28.30
2009,06,02,18,22,28.40
2009,06,02,18,23,28.40
2009,06,02,18,24,28.50
2009,06,02,18,25,28.50
2009,06,02,18,26,28.60
2009,06,02,18,27,28.70
2009,06,02,18,28,28.70
2009,06,02,18,29,28.80
2009,06,02,18,30,28.80
2009,06,02,18,31,28.90
2009,06,02,18,32,28.90
2009,06,02,18,33,29.00
2009,06,02,18,34,29.00
2009,06,02,18,35,29.00
2009,06,02,18,36,29.00
2009,06,02,18,37,29.00
2009,06,02,18,38,29.00
2009,06,02,18,39,28.90
2009,06,02,18,40,28.80
2009,06,02,18,41,28.80
2009,06,02,18,42,28.70
2009,06,02,18,43,28.70
2009,06,02,18,44,28.70
2009,06,02,18,45,28.70
2009,06,02,18,46,28.70
2009,06,02,18,47,28.70
2009,06,02,18,48,28.80
2009,06,02,18,49,28.80
2009,06,02,18,50,28.80
2009,06,02,18,51,28.80
2009,06,02,18,52,28.70
2009,06,02,18,53,28.70
2009,06,02,18,54,28.70
2009,06,02,18,55,28.70
2009,06,02,18,56,28.70
2009,06,02,18,57,28.70
2009,06,02,18,58,28.70
2009,06,02,18,59,28.70
2009,06,02,19,00,28.70
2009,06,02,19,01,28.70
2009,06,02,19,02,28.70
2009,06,02,19,03,28.70
